Regional Weather Roundup
Issued by NWS Newport/Morehead, NC

Current Version | Previous Version | Graphics & Text | Print | Product List | Glossary On
Versions: 1 2 3 4 5 6 7 8 9 10 11 12 13 14 15 16 17 18 19 20 21 22 23 24 25 26 27 28 29 30 31 32 33 34 35 36 37 38 39 40 41 42 43 44 45 46 47 48 49 50
000 ASUS42 KMHX 291622 RWRMHX WEATHER ROUNDUP FOR EASTERN NORTH CAROLINA NATIONAL WEATHER SERVICE NEWPORT/MOREHEAD CITY NC 1200 PM EDT WED OCT 29 2014 NOTE: "FAIR" INDICATES FEW OR NO CLOUDS BELOW 12,000 FEET WITH NO SIGNIFICANT WEATHER AND/OR OBSTRUCTIONS TO VISIBILITY NCZ015>017-031-032-045>047-102-103-291700- NORTH COAST CITY SKY/WX TMP DP RH WIND PRES REMARKS EDENTON PTSUNNY 74 62 64 SW8 30.00F ELIZABETH CITY PTSUNNY 76 61 59 SW12 30.00F KITTY HAWK PTSUNNY 75 62 63 SW9 29.99F MANTEO PTSUNNY 74 62 65 SW12 30.01F $$ NCZ045>047-081-094-103-104-291700- CENTRAL COAST CITY SKY/WX TMP DP RH WIND PRES REMARKS FRISCO PTSUNNY 74 67 78 SW12 30.05F SWANQUARTER N/A 72 N/A N/A S9 30.00S $$ NCZ095-097-098-100-101-291700- SOUTHERN COAST CITY SKY/WX TMP DP RH WIND PRES REMARKS BEAUFORT PTSUNNY 74 67 78 SW14 30.05F CEDAR ISLAND N/A 75 N/A N/A S13 30.06F JACKSONVILLE PTSUNNY 77 62 59 SW10 30.04F PINEY ISLAND PTSUNNY 80 64 58 SW10 30.04F WILMINGTON PTSUNNY 77 63 61 W13 30.05F $$ NCZ011>013-027>030-043-044-078>080-089-090>093-098-291700- COASTAL PLAIN CITY SKY/WX TMP DP RH WIND PRES REMARKS AHOSKIE NOT AVBL CLINTON CLOUDY 76 63 65 SW9 30.03F ELIZABETHTOWN PTSUNNY 75 61 62 SW10 30.05F GOLDSBORO PTSUNNY 75 66 73 SW15 30.01F GREENVILLE PTSUNNY 77 63 61 SW10 30.03F HAVELOCK PTSUNNY 78 63 59 SW13 30.05F KENANSVILLE PTSUNNY 77 59 54 W12G17 30.04F KINSTON PTSUNNY 77 61 57 W8 30.03F NEW BERN PTSUNNY 78 63 59 SW12G17 30.04F RICHLANDS PTSUNNY 77 61 57 SW12G17 30.04F ROCKY MOUNT CLOUDY 73 59 61 SW13 30.01F WASHINGTON PTSUNNY 76 62 62 SW8 30.01F WHITEVILLE PTSUNNY 76 61 59 SW9 30.04F $$ AMZ130-135-150-152-154-156-158-170-250-252-270-ANZ085-086-088-633-658-670-291700- MARINE OBSERVATIONS STATION/POSITION TIME TEMP WIND PRES WAVE SWELL AIR SEA DIR/SP/G HT/PER HT/PER (UTC) (F) (DEG/KT/KT) (MB) (FT/S) (FT/S) CHESAPEAKE LIGHT 1600 67 200/ 18/ 19 1015.2 64 E VA BEACH 1600 69 67 240/ 17/ 19 1015.2 3/ 4 DUCK 1600 72 68 220/ 10/ 13 1015.4 2 E DUCK NOT AVBL 10 NE DUCK 1600 67 N/A 2/ 5 OREGON INLET 1600 68 67 190/ 12/ 13 1016.5 13E OREGON INLT 1600 70 N/A 2/ 4 HATTERAS CG 1600 230/ 10/ 15 1018.0 DIAMOND BUOY 1600 76 250/ 17/ 19 1017.4 4/ 5 17 S OCRACOKE 1500 VRB 17/ 21 1018.1 CAPE LOOKOUT 1600 74 230/ 9/ 13 1017.6 BEAUFORT LAB 1600 230/ 6/ 12 1017.1 30 SE NEW RIVER 1600 74 75 250/ 14/ 17 1017.5 3/ 5 2/ 9 5 SE WRIGHTSVLE 1600 70 71 230/ 12/ 14 N/A 225 S CAPE HAT 1514 76 77 190/ 4/ 6 1021.0 2/ 9 2/ 9 41 SE CHARLESTON 1600 74 76 280/ 14/ 16 1018.8 3/ 4 2/ 7 $$

USA.gov is the U.S. government's official web portal to all federal, state and local government web resources and services.